Terminal Aerodrome Forecast
Issued by NWS Des Moines, IA

Home | Current Version | Previous Version | Text Only | Print | Product List | Glossary On
Versions: 1 2 3 4 5 6 7 8 9 10 11 12 13 14 15 16 17 18 19 20 21 22 23 24 25 26 27 28 29 30 31 32 33 34
000
FTUS43 KDMX 210520
TAFDSM
TAF
KDSM 210520Z 2106/2206 14007KT P6SM BKN060
     FM211200 17008KT P6SM SCT060 BKN100
     FM211500 20012KT P6SM OVC100
     FM220000 15006KT P6SM SCT080 BKN150=

USA.gov is the U.S. government's official web portal to all federal, state and local government web resources and services.